Location: Moscow
(55.7500°N, 37.5830°E)
Time: 05:33:18
(UTC+03:00)

Vanguard 1 - Pass Details

Date: 06 December 2021
Orbit: 652 x 3830 km, 34.2° (Epoch: 21 January)

Event Time Altitude Azimuth Distance (km) Brightness Sun altitude
Rises 23:38:17 0° 217° (SW) 7,169 - -55.8°
Reaches altitude 10° 23:43:34 10° 209° (SSW) 6,472 - -56.0°
Maximum altitude 00:01:28 33° 156° (SSE) 5,237 - -56.5°
Exits shadow 00:17:27 13° 106° (ESE) 6,201 13.9 -56.7°
Drops below altitude 10° 00:19:01 10° 103° (ESE) 6,389 14.1 -56.7°
Sets 00:24:07 0° 95° (E) 7,075 14.4 -56.7°
